| time (UTC) | temp F | wind direction | speed knots | gust knots | rain 1hr in | rain 24hr in | rain mn in | humidity % | barometer mb |
| 20260506193035 | 55 | 240 | 7.8 | 13.9 | 0.00 | 0.00 | 0.00 | 95 | 1018.8 |
| 20260506192335 | 55 | 246 | 4.3 | 9.6 | 0.00 | 0.00 | 0.00 | 95 | 1018.8 |
| 20260506191635 | 54 | 222 | 5.2 | 13.9 | 0.00 | 0.00 | 0.00 | 95 | 1018.7 |
| 20260506191017 | 54 | 221 | 7.0 | 14.8 | 0.00 | 0.00 | 0.00 | 95 | 1018.7 |
| 20260506190317 | 54 | 228 | 9.6 | 14.8 | 0.00 | 0.00 | 0.00 | 95 | 1018.6 |
| 20260506185534 | 54 | 230 | 7.0 | 13.9 | 0.00 | 0.00 | 0.00 | 95 | 1018.5 |
| 20260506184835 | 55 | 234 | 7.8 | 13.9 | 0.00 | 0.00 | 0.00 | 95 | 1018.5 |
| 20260506184134 | 54 | 221 | 3.5 | 13.9 | 0.00 | 0.00 | 0.00 | 95 | 1018.6 |
| 20260506183435 | 54 | 230 | 7.0 | 13.9 | 0.00 | 0.00 | 0.00 | 95 | 1018.6 |
| 20260506182734 | 54 | 232 | 6.1 | 11.3 | 0.00 | 0.00 | 0.00 | 95 | 1018.6 |
| 20260506182035 | 55 | 236 | 5.2 | 9.6 | 0.00 | 0.00 | 0.00 | 95 | 1018.4 |
| 20260506181335 | 56 | 220 | 5.2 | 9.6 | 0.00 | 0.00 | 0.00 | 95 | 1018.5 |
| 20260506180635 | 56 | 147 | 5.2 | 12.2 | 0.00 | 0.00 | 0.00 | 95 | 1018.5 |
| 20260506175934 | 56 | 132 | 6.1 | 12.2 | 0.00 | 0.00 | 0.00 | 95 | 1018.5 |
| 20260506175234 | 55 | 200 | 3.5 | 10.4 | 0.00 | 0.00 | 0.00 | 95 | 1018.5 |
| 20260506174535 | 55 | 206 | 6.1 | 10.4 | 0.00 | 0.00 | 0.00 | 95 | 1018.4 |
| 20260506173835 | 55 | 135 | 5.2 | 10.4 | 0.00 | 0.00 | 0.00 | 95 | 1018.4 |
| 20260506173135 | 55 | 144 | 3.5 | 10.4 | 0.00 | 0.00 | 0.00 | 95 | 1018.3 |
| 20260506172434 | 55 | 139 | 5.2 | 8.7 | 0.00 | 0.00 | 0.00 | 95 | 1018.2 |
| 20260506171735 | 55 | 129 | 6.1 | 8.7 | 0.00 | 0.00 | 0.00 | 95 | 1018.2 |
| 20260506171034 | 54 | 177 | 4.3 | 11.3 | 0.00 | 0.00 | 0.00 | 95 | 1018.2 |
| 20260506170335 | 54 | 146 | 5.2 | 11.3 | 0.00 | 0.00 | 0.00 | 95 | 1018.1 |
| 20260506165635 | 54 | 185 | 4.3 | 11.3 | 0.00 | 0.00 | 0.00 | 95 | 1018.1 |
| 20260506164934 | 54 | 186 | 6.1 | 11.3 | 0.00 | 0.00 | 0.00 | 95 | 1018.1 |
| 20260506164234 | 54 | 154 | 4.3 | 10.4 | 0.00 | 0.00 | 0.00 | 95 | 1018.2 |
| 20260506163535 | 54 | 148 | 4.3 | 9.6 | 0.00 | 0.00 | 0.00 | 95 | 1018.2 |
| 20260506162917 | 54 | 126 | 3.5 | 9.6 | 0.00 | 0.00 | 0.00 | 95 | 1018.2 |
| 20260506162134 | 54 | 154 | 2.6 | 9.6 | 0.00 | 0.00 | 0.00 | 95 | 1018.3 |
| 20260506161434 | 53 | 189 | 6.1 | 13.9 | 0.00 | 0.00 | 0.00 | 95 | 1018.2 |
| 20260506160734 | 53 | 201 | 4.3 | 11.3 | 0.00 | 0.00 | 0.00 | 95 | 1018.2 |
| 20260506160117 | 53 | 177 | 4.3 | 11.3 | 0.00 | 0.00 | 0.00 | 95 | 1018.3 |
| 20260506155417 | 53 | 199 | 7.0 | 10.4 | 0.00 | 0.00 | 0.00 | 95 | 1018.3 |
| 20260506154635 | 53 | 191 | 4.3 | 10.4 | 0.00 | 0.00 | 0.00 | 95 | 1018.2 |
| 20260506153934 | 53 | 149 | 5.2 | 12.2 | 0.00 | 0.00 | 0.00 | 95 | 1018.2 |
| 20260506153234 | 53 | 164 | 2.6 | 7.8 | 0.00 | 0.00 | 0.00 | 95 | 1018.1 |
| 20260506152535 | 53 | 185 | 4.3 | 8.7 | 0.00 | 0.00 | 0.00 | 95 | 1018.0 |
| 20260506151835 | 53 | 182 | 5.2 | 12.2 | 0.00 | 0.00 | 0.00 | 95 | 1017.9 |
| 20260506151134 | 53 | 192 | 4.3 | 13.9 | 0.00 | 0.00 | 0.00 | 95 | 1017.9 |
| 20260506150435 | 53 | 187 | 5.2 | 13.9 | 0.00 | 0.00 | 0.00 | 95 | 1017.7 |
| 20260506145817 | 52 | 170 | 5.2 | 11.3 | 0.00 | 0.00 | 0.00 | 95 | 1017.6 |
| 20260506145034 | 52 | 173 | 6.1 | 11.3 | 0.00 | 0.00 | 0.00 | 95 | 1017.6 |
| 20260506144335 | 52 | 197 | 5.2 | 11.3 | 0.00 | 0.00 | 0.00 | 94 | 1017.5 |
| 20260506143717 | 52 | 137 | 5.2 | 11.3 | 0.00 | 0.00 | 0.00 | 94 | 1017.4 |
| 20260506142935 | 52 | 147 | 5.2 | 12.2 | 0.00 | 0.00 | 0.00 | 95 | 1017.3 |
| 20260506142235 | 52 | 156 | 4.3 | 13.9 | 0.00 | 0.00 | 0.00 | 95 | 1017.3 |
| 20260506141534 | 52 | 140 | 4.3 | 11.3 | 0.00 | 0.00 | 0.00 | 94 | 1017.3 |
| 20260506140834 | 52 | 140 | 4.3 | 11.3 | 0.00 | 0.00 | 0.00 | 94 | 1017.3 |
| 20260506140135 | 52 | 137 | 7.0 | 9.6 | 0.00 | 0.00 | 0.00 | 94 | 1017.4 |
| 20260506135435 | 52 | 167 | 4.3 | 12.2 | 0.00 | 0.00 | 0.00 | 94 | 1017.4 |
| 20260506134734 | 52 | 156 | 3.5 | 11.3 | 0.00 | 0.00 | 0.00 | 94 | 1017.3 |
| 20260506134035 | 52 | 161 | 4.3 | 12.2 | 0.00 | 0.00 | 0.00 | 94 | 1017.1 |
| 20260506133334 | 52 | 144 | 5.2 | 11.3 | 0.00 | 0.00 | 0.00 | 94 | 1017.0 |
| 20260506132634 | 52 | 141 | 7.8 | 11.3 | 0.00 | 0.00 | 0.00 | 94 | 1016.9 |
| 20260506131934 | 51 | 147 | 6.1 | 13.0 | 0.00 | 0.00 | 0.00 | 94 | 1016.7 |
| 20260506131317 | 51 | 167 | 6.1 | 13.9 | 0.00 | 0.00 | 0.00 | 94 | 1016.7 |
| 20260506130534 | 51 | 139 | 6.1 | 13.9 | 0.00 | 0.00 | 0.00 | 94 | 1016.7 |
| 20260506125834 | 51 | 137 | 7.0 | 14.8 | 0.00 | 0.00 | 0.00 | 94 | 1016.7 |
| 20260506125134 | 51 | 144 | 7.0 | 14.8 | 0.00 | 0.00 | 0.00 | 94 | 1016.8 |
| 20260506124434 | 51 | 139 | 5.2 | 11.3 | 0.00 | 0.00 | 0.00 | 94 | 1016.7 |
| 20260506123734 | 51 | 167 | 3.5 | 10.4 | 0.00 | 0.00 | 0.00 | 94 | 1016.8 |
| 20260506123035 | 51 | 151 | 4.3 | 9.6 | 0.00 | 0.00 | 0.00 | 94 | 1016.8 |
| 20260506122334 | 51 | 144 | 4.3 | 13.9 | 0.00 | 0.00 | 0.00 | 94 | 1016.8 |
| 20260506121634 | 51 | 152 | 3.5 | 13.9 | 0.00 | 0.00 | 0.00 | 94 | 1016.8 |
| 20260506120934 | 51 | 162 | 5.2 | 15.6 | 0.00 | 0.00 | 0.00 | 94 | 1016.6 |
| 20260506120234 | 51 | 168 | 6.1 | 15.6 | 0.00 | 0.00 | 0.00 | 94 | 1016.4 |
| 20260506115534 | 51 | 186 | 4.3 | 8.7 | 0.00 | 0.00 | 0.00 | 94 | 1016.4 |
| 20260506114834 | 51 | 152 | 4.3 | 13.0 | 0.00 | 0.00 | 0.00 | 94 | 1016.3 |
| 20260506114135 | 51 | 145 | 5.2 | 12.2 | 0.00 | 0.00 | 0.00 | 94 | 1016.2 |
| 20260506113434 | 51 | 146 | 4.3 | 12.2 | 0.00 | 0.00 | 0.00 | 94 | 1016.1 |
| 20260506112734 | 51 | 138 | 6.1 | 14.8 | 0.00 | 0.00 | 0.00 | 94 | 1016.1 |
| 20260506112034 | 51 | 149 | 4.3 | 10.4 | 0.00 | 0.00 | 0.00 | 94 | 1016.1 |
| 20260506111334 | 51 | 141 | 5.2 | 8.7 | 0.00 | 0.00 | 0.00 | 94 | 1016.1 |
| 20260506110634 | 51 | 190 | 5.2 | 10.4 | 0.00 | 0.00 | 0.00 | 94 | 1016.0 |
| 20260506105935 | 51 | 172 | 4.3 | 10.4 | 0.00 | 0.00 | 0.00 | 94 | 1015.9 |
| 20260506105317 | 50 | 160 | 4.3 | 13.0 | 0.00 | 0.00 | 0.00 | 94 | 1015.8 |
| 20260506104535 | 50 | 160 | 6.1 | 13.0 | 0.00 | 0.00 | 0.00 | 94 | 1015.7 |
| 20260506103834 | 50 | 142 | 5.2 | 7.8 | 0.00 | 0.00 | 0.00 | 94 | 1015.6 |
| 20260506103135 | 50 | 155 | 5.2 | 10.4 | 0.00 | 0.00 | 0.00 | 94 | 1015.5 |
| 20260506102435 | 51 | 141 | 4.3 | 9.6 | 0.00 | 0.00 | 0.00 | 94 | 1015.6 |
| 20260506101735 | 51 | 183 | 6.1 | 16.5 | 0.00 | 0.00 | 0.00 | 94 | 1015.6 |
| 20260506101035 | 51 | 162 | 4.3 | 9.6 | 0.00 | 0.00 | 0.00 | 94 | 1015.5 |
| 20260506100335 | 51 | 159 | 5.2 | 11.3 | 0.00 | 0.00 | 0.00 | 94 | 1015.3 |
| 20260506095635 | 51 | 166 | 4.3 | 16.5 | 0.00 | 0.00 | 0.00 | 94 | 1015.3 |
| 20260506094935 | 51 | 182 | 6.1 | 14.8 | 0.00 | 0.00 | 0.00 | 94 | 1015.3 |
| 20260506094317 | 51 | 170 | 7.8 | 13.9 | 0.00 | 0.00 | 0.00 | 94 | 1015.4 |
| 20260506093617 | 51 | 157 | 7.8 | 13.9 | 0.00 | 0.00 | 0.00 | 94 | 1015.3 |
| 20260506092834 | 51 | 176 | 7.0 | 12.2 | 0.00 | 0.00 | 0.00 | 94 | 1015.2 |
| 20260506092135 | 51 | 167 | 6.1 | 12.2 | 0.00 | 0.00 | 0.00 | 94 | 1015.1 |
| 20260506091517 | 51 | 170 | 4.3 | 14.8 | 0.00 | 0.00 | 0.00 | 94 | 1015.1 |
| 20260506090817 | 51 | 163 | 4.3 | 11.3 | 0.00 | 0.00 | 0.00 | 94 | 1015.1 |
| 20260506090117 | 51 | 151 | 6.1 | 11.3 | 0.00 | 0.00 | 0.00 | 94 | 1015.0 |
| 20260506085334 | 51 | 141 | 6.1 | 12.2 | 0.00 | 0.00 | 0.00 | 94 | 1015.0 |
| 20260506084635 | 51 | 164 | 7.0 | 12.2 | 0.00 | 0.00 | 0.00 | 94 | 1015.0 |
| 20260506083935 | 52 | 153 | 5.2 | 10.4 | 0.00 | 0.00 | 0.00 | 94 | 1015.0 |
| 20260506083234 | 52 | 154 | 4.3 | 11.3 | 0.00 | 0.00 | 0.00 | 94 | 1015.0 |
| 20260506082617 | 52 | 164 | 4.3 | 10.4 | 0.00 | 0.00 | 0.00 | 94 | 1015.0 |
| 20260506081834 | 52 | 162 | 5.2 | 11.3 | 0.00 | 0.00 | 0.00 | 94 | 1014.9 |
| 20260506081134 | 52 | 145 | 6.1 | 13.0 | 0.00 | 0.00 | 0.00 | 94 | 1014.9 |
| 20260506080434 | 52 | 176 | 5.2 | 9.6 | 0.00 | 0.00 | 0.00 | 94 | 1014.8 |
| 20260506072934 | 53 | 181 | 6.1 | 16.5 | 0.00 | 0.00 | 0.00 | 95 | 1014.4 |
| 20260506072235 | 53 | 185 | 5.2 | 13.0 | 0.00 | 0.00 | 0.00 | 95 | 1014.4 |
| 20260506071534 | 53 | 186 | 6.1 | 11.3 | 0.00 | 0.00 | 0.00 | 95 | 1014.4 |
| 20260506070834 | 53 | 195 | 6.1 | 14.8 | 0.00 | 0.00 | 0.00 | 95 | 1014.5 |
| 20260506070134 | 53 | 197 | 5.2 | 13.0 | 0.00 | 0.00 | 0.00 | 95 | 1014.5 |
| 20260506061934 | 54 | 200 | 5.2 | 9.6 | 0.00 | 0.00 | 0.00 | 95 | 1014.1 |
| 20260506061317 | 54 | 191 | 6.1 | 9.6 | 0.00 | 0.00 | 0.00 | 95 | 1014.1 |
| 20260506060534 | 54 | 192 | 4.3 | 11.3 | 0.00 | 0.00 | 0.00 | 95 | 1014.1 |
| 20260506051017 | 55 | 210 | 4.3 | 9.6 | 0.00 | 0.00 | 0.00 | 95 | 1013.9 |
| 20260506050234 | 55 | 206 | 5.2 | 11.3 | 0.00 | 0.00 | 0.00 | 95 | 1013.8 |
| 20260506044917 | 55 | 195 | 5.2 | 10.4 | 0.00 | 0.00 | 0.00 | 95 | 1013.7 |
| 20260506044134 | 55 | 193 | 3.5 | 8.7 | 0.00 | 0.00 | 0.00 | 95 | 1013.6 |
| 20260506043434 | 55 | 198 | 6.1 | 10.4 | 0.00 | 0.00 | 0.00 | 95 | 1013.5 |
| 20260506042734 | 56 | 194 | 5.2 | 10.4 | 0.00 | 0.00 | 0.00 | 95 | 1013.4 |
| 20260506042116 | 56 | 194 | 5.2 | 11.3 | 0.00 | 0.00 | 0.00 | 95 | 1013.4 |
| 20260506041334 | 56 | 197 | 6.1 | 10.4 | 0.00 | 0.00 | 0.00 | 95 | 1013.4 |
| 20260506040717 | 56 | 175 | 4.3 | 9.6 | 0.00 | 0.00 | 0.00 | 95 | 1013.2 |
| 20260506035934 | 56 | 174 | 3.5 | 10.4 | 0.00 | 0.00 | 0.00 | 95 | 1013.1 |
| 20260506035234 | 56 | 190 | 5.2 | 12.2 | 0.00 | 0.00 | 0.00 | 95 | 1013.0 |
| 20260506034534 | 56 | 165 | 4.3 | 11.3 | 0.00 | 0.00 | 0.00 | 95 | 1012.9 |
| 20260506033834 | 57 | 159 | 3.5 | 12.2 | 0.00 | 0.00 | 0.00 | 95 | 1012.9 |
| 20260506033135 | 57 | 184 | 5.2 | 12.2 | 0.00 | 0.00 | 0.00 | 95 | 1012.9 |
| 20260506032516 | 57 | 168 | 5.2 | 8.7 | 0.00 | 0.00 | 0.00 | 96 | 1012.8 |
| 20260506031735 | 57 | 166 | 3.5 | 9.6 | 0.00 | 0.00 | 0.00 | 96 | 1012.8 |
| 20260506031034 | 58 | 139 | 4.3 | 9.6 | 0.00 | 0.00 | 0.00 | 96 | 1012.7 |
| 20260506030417 | 59 | 140 | 5.2 | 12.2 | 0.00 | 0.00 | 0.00 | 96 | 1012.7 |
| 20260506025634 | 59 | 168 | 3.5 | 10.4 | 0.00 | 0.00 | 0.00 | 96 | 1012.7 |
| 20260506024934 | 60 | 164 | 3.5 | 7.8 | 0.00 | 0.00 | 0.00 | 96 | 1012.7 |
| 20260506024316 | 60 | 143 | 3.5 | 11.3 | 0.00 | 0.00 | 0.00 | 96 | 1012.6 |
| 20260506023534 | 61 | 139 | 5.2 | 13.9 | 0.00 | 0.00 | 0.00 | 96 | 1012.7 |
| 20260506022834 | 61 | 169 | 5.2 | 13.9 | 0.00 | 0.00 | 0.00 | 96 | 1012.7 |
| 20260506022216 | 61 | 181 | 4.3 | 12.2 | 0.00 | 0.00 | 0.00 | 96 | 1012.7 |
| 20260506021434 | 62 | 174 | 4.3 | 11.3 | 0.00 | 0.00 | 0.00 | 96 | 1012.7 |
| 20260506020734 | 62 | 187 | 5.2 | 14.8 | 0.00 | 0.00 | 0.00 | 96 | 1012.7 |
| 20260506020117 | 62 | 200 | 7.8 | 14.8 | 0.00 | 0.00 | 0.00 | 97 | 1012.7 |
| 20260506015334 | 62 | 208 | 7.8 | 13.9 | 0.00 | 0.00 | 0.00 | 97 | 1012.8 |
| 20260506014634 | 62 | 202 | 6.1 | 16.5 | 0.00 | 0.00 | 0.00 | 97 | 1012.9 |
| 20260506013934 | 62 | 199 | 5.2 | 12.2 | 0.00 | 0.00 | 0.00 | 97 | 1012.9 |
| 20260506013234 | 63 | 176 | 6.1 | 11.3 | 0.00 | 0.00 | 0.00 | 97 | 1012.8 |
| 20260506012616 | 63 | 172 | 6.1 | 11.3 | 0.00 | 0.00 | 0.00 | 97 | 1012.8 |
| 20260506011917 | 63 | 168 | 7.0 | 11.3 | 0.00 | 0.00 | 0.00 | 97 | 1012.8 |
| 20260506011134 | 64 | 165 | 6.1 | 11.3 | 0.00 | 0.00 | 0.00 | 97 | 1012.8 |
| 20260506010434 | 64 | 153 | 4.3 | 10.4 | 0.00 | 0.00 | 0.00 | 97 | 1012.8 |
| 20260506005734 | 64 | 171 | 5.2 | 12.2 | 0.00 | 0.00 | 0.00 | 97 | 1012.9 |
| 20260506005034 | 65 | 153 | 5.2 | 14.8 | 0.00 | 0.00 | 0.00 | 97 | 1012.9 |
| 20260506004334 | 65 | 162 | 6.1 | 19.1 | 0.00 | 0.00 | 0.00 | 97 | 1012.9 |
| 20260506003634 | 66 | 181 | 6.1 | 14.8 | 0.00 | 0.00 | 0.00 | 97 | 1012.9 |
| 20260506002934 | 66 | 157 | 6.1 | 13.9 | 0.00 | 0.00 | 0.00 | 97 | 1013.0 |
| 20260506002316 | 66 | 182 | 6.1 | 11.3 | 0.00 | 0.00 | 0.00 | 97 | 1013.0 |
| 20260506001534 | 66 | 144 | 6.1 | 13.0 | 0.00 | 0.00 | 0.00 | 97 | 1013.1 |
| 20260506000834 | 67 | 139 | 7.0 | 16.5 | 0.00 | 0.00 | 0.00 | 97 | 1013.1 |
| 20260506000219 | 67 | 186 | 5.2 | 13.0 | 0.00 | 0.00 | 0.00 | 97 | 1013.2 |
| 20260505235434 | 67 | 177 | 6.1 | 13.9 | 0.00 | 0.00 | 0.00 | 97 | 1013.2 |
| 20260505234817 | 66 | 181 | 8.7 | 16.5 | 0.00 | 0.00 | 0.00 | 97 | 1013.3 |
| 20260505234034 | 66 | 191 | 8.7 | 20.0 | 0.00 | 0.00 | 0.00 | 97 | 1013.4 |
| 20260505233334 | 66 | 173 | 9.6 | 20.0 | 0.00 | 0.00 | 0.00 | 97 | 1013.4 |
| 20260505232634 | 66 | 164 | 9.6 | 17.4 | 0.00 | 0.00 | 0.00 | 97 | 1013.5 |
| 20260505231934 | 67 | 188 | 10.4 | 16.5 | 0.00 | 0.00 | 0.00 | 97 | 1013.5 |
| 20260505231317 | 67 | 202 | 8.7 | 16.5 | 0.00 | 0.00 | 0.00 | 97 | 1013.6 |
| 20260505230534 | 68 | 194 | 9.6 | 18.2 | 0.00 | 0.00 | 0.00 | 98 | 1013.6 |
| 20260505225834 | 68 | 156 | 7.8 | 15.6 | 0.00 | 0.00 | 0.00 | 98 | 1013.7 |
| 20260505225134 | 68 | 196 | 7.0 | 18.2 | 0.00 | 0.00 | 0.00 | 98 | 1013.7 |
| 20260505224434 | 69 | 210 | 11.3 | 18.2 | 0.00 | 0.00 | 0.00 | 98 | 1013.8 |
| 20260505223734 | 69 | 190 | 5.2 | 15.6 | 0.00 | 0.00 | 0.00 | 98 | 1013.8 |
| 20260505223034 | 68 | 168 | 7.8 | 15.6 | 0.00 | 0.00 | 0.00 | 98 | 1013.9 |
| 20260505222333 | 68 | 193 | 7.8 | 15.6 | 0.00 | 0.00 | 0.00 | 98 | 1013.9 |
| 20260505221717 | 68 | 197 | 8.7 | 15.6 | 0.00 | 0.00 | 0.00 | 98 | 1013.9 |
| 20260505220934 | 68 | 179 | 7.8 | 15.6 | 0.00 | 0.00 | 0.00 | 98 | 1013.9 |
| 20260505220316 | 68 | 209 | 9.6 | 15.6 | 0.00 | 0.00 | 0.00 | 98 | 1013.9 |
| 20260505215534 | 69 | 161 | 7.0 | 14.8 | 0.00 | 0.00 | 0.00 | 98 | 1013.9 |
| 20260505214834 | 68 | 167 | 7.0 | 16.5 | 0.00 | 0.00 | 0.00 | 98 | 1014.0 |
| 20260505214134 | 69 | 202 | 10.4 | 16.5 | 0.00 | 0.00 | 0.00 | 98 | 1014.0 |
| 20260505213434 | 69 | 162 | 6.1 | 15.6 | 0.00 | 0.00 | 0.00 | 98 | 1014.1 |
| 20260505212734 | 68 | 182 | 5.2 | 16.5 | 0.00 | 0.00 | 0.00 | 98 | 1014.3 |
| 20260505212117 | 68 | 203 | 10.4 | 18.2 | 0.00 | 0.00 | 0.00 | 98 | 1014.4 |
| 20260505211416 | 69 | 190 | 7.8 | 16.5 | 0.00 | 0.00 | 0.00 | 98 | 1014.4 |
| 20260505210716 | 68 | 152 | 7.8 | 15.6 | 0.00 | 0.00 | 0.00 | 98 | 1014.4 |
| 20260505205934 | 68 | 186 | 7.8 | 16.5 | 0.00 | 0.00 | 0.00 | 98 | 1014.5 |
| 20260505205234 | 68 | 192 | 7.8 | 15.6 | 0.00 | 0.00 | 0.00 | 98 | 1014.5 |
| 20260505204533 | 68 | 195 | 6.1 | 18.2 | 0.00 | 0.00 | 0.00 | 98 | 1014.5 |
| 20260505203834 | 67 | 160 | 8.7 | 18.2 | 0.00 | 0.00 | 0.00 | 98 | 1014.5 |
| 20260505203216 | 67 | 191 | 7.0 | 14.8 | 0.00 | 0.00 | 0.00 | 97 | 1014.5 |
| 20260505202434 | 68 | 142 | 7.8 | 16.5 | 0.00 | 0.00 | 0.00 | 98 | 1014.5 |
| 20260505201734 | 68 | 138 | 7.8 | 14.8 | 0.00 | 0.00 | 0.00 | 98 | 1014.5 |
| 20260505201034 | 68 | 153 | 7.8 | 14.8 | 0.00 | 0.00 | 0.00 | 98 | 1014.5 |
| 20260505200334 | 67 | 189 | 7.0 | 14.8 | 0.00 | 0.00 | 0.00 | 98 | 1014.5 |
| 20260505195634 | 67 | 180 | 8.7 | 14.8 | 0.00 | 0.00 | 0.00 | 98 | 1014.6 |
| 20260505194934 | 65 | 168 | 5.2 | 15.6 | 0.00 | 0.00 | 0.00 | 97 | 1014.6 |
| 20260505194316 | 65 | 156 | 7.0 | 14.8 | 0.00 | 0.00 | 0.00 | 97 | 1014.6 |
| 20260505193616 | 65 | 157 | 7.0 | 14.8 | 0.00 | 0.00 | 0.00 | 97 | 1014.5 |